QPF
0.00 0.00 0.00 0.01 0.00 0.00 0.01 0.02 0.04 0.05 0.06 0.06 0.06 0.06 0.08 0.08 0.07 0.06 0.07 0.07 0.07 0.05 0.05 0.07 0.08 0.09 0.10 0.09 0.06 0.05 0.06 0.07 0.08 0.11 0.14 0.15 0.14 0.12 0.09 0.07 0.05 0.04 0.04
0.00 0.00 0.00 0.00 0.01 0.01 0.01 0.01 0.02 0.03 0.05 0.06 0.05 0.05 0.07 0.09 0.08 0.07 0.07 0.08 0.07 0.06 0.05 0.06 0.07 0.06 0.06 0.06 0.06 0.06 0.06 0.06 0.07 0.10 0.15 0.17 0.16 0.14 0.09 0.06 0.05 0.04 0.05
0.00 0.00 0.00 0.00 0.01 0.01 0.01 0.01 0.01 0.02 0.04 0.06 0.06 0.05 0.06 0.10 0.11 0.09 0.08 0.08 0.07 0.06 0.06 0.06 0.06 0.05 0.04 0.04 0.05 0.05 0.05 0.05 0.05 0.07 0.12 0.13 0.13 0.10 0.09 0.07 0.04 0.04 0.06
0.00 0.00 0.00 0.00 0.00 0.01 0.01 0.02 0.02 0.02 0.04 0.06 0.05 0.05 0.05 0.07 0.10 0.11 0.10 0.09 0.07 0.07 0.06 0.07 0.06 0.06 0.04 0.03 0.03 0.04 0.04 0.04 0.05 0.05 0.07 0.09 0.10 0.09 0.07 0.07 0.05 0.04 0.04
0.01 0.01 0.00 0.00 0.00 0.01 0.01 0.02 0.02 0.03 0.03 0.04 0.05 0.05 0.05 0.07 0.10 0.12 0.11 0.08 0.07 0.07 0.08 0.07 0.07 0.06 0.05 0.04 0.03 0.03 0.04 0.04 0.05 0.06 0.06 0.06 0.07 0.07 0.06 0.05 0.05 0.05 0.05
0.01 0.01 0.01 0.01 0.01 0.01 0.02 0.02 0.03 0.03 0.04 0.05 0.05 0.06 0.06 0.08 0.10 0.12 0.11 0.09 0.06 0.07 0.08 0.08 0.07 0.07 0.05 0.04 0.04 0.04 0.04 0.04 0.04 0.05 0.07 0.06 0.06 0.06 0.06 0.05 0.04 0.04 0.04
0.01 0.01 0.01 0.01 0.02 0.02 0.03 0.04 0.04 0.03 0.04 0.05 0.05 0.06 0.07 0.08 0.11 0.13 0.11 0.12 0.08 0.06 0.08 0.09 0.08 0.08 0.06 0.05 0.05 0.05 0.05 0.05 0.04 0.05 0.06 0.07 0.05 0.06 0.07 0.07 0.06 0.05 0.04
0.01 0.01 0.01 0.01 0.02 0.03 0.03 0.04 0.04 0.05 0.06 0.06 0.06 0.07 0.08 0.09 0.12 0.13 0.12 0.13 0.11 0.07 0.07 0.08 0.07 0.09 0.08 0.05 0.05 0.06 0.06 0.06 0.05 0.05 0.06 0.07 0.07 0.06 0.07 0.08 0.08 0.08 0.06
0.02 0.02 0.02 0.02 0.02 0.03 0.04 0.04 0.05 0.06 0.07 0.07 0.08 0.09 0.09 0.11 0.12 0.13 0.13 0.14 0.15 0.10 0.09 0.07 0.08 0.07 0.06 0.05 0.06 0.07 0.07 0.07 0.06 0.06 0.07 0.07 0.07 0.07 0.07 0.08 0.09 0.09 0.08
0.02 0.03 0.03 0.04 0.03 0.04 0.05 0.05 0.07 0.07 0.08 0.08 0.09 0.10 0.10 0.11 0.13 0.12 0.12 0.13 0.16 0.14 0.12 0.09 0.07 0.05 0.04 0.05 0.05 0.06 0.07 0.07 0.08 0.08 0.08 0.09 0.08 0.07 0.07 0.08 0.09 0.08 0.08
0.04 0.04 0.05 0.04 0.05 0.07 0.07 0.07 0.10 0.08 0.08 0.08 0.08 0.10 0.12 0.10 0.12 0.13 0.11 0.11 0.14 0.16 0.14 0.10 0.06 0.04 0.03 0.04 0.04 0.04 0.05 0.06 0.07 0.07 0.07 0.07 0.09 0.09 0.09 0.10 0.11 0.10 0.09
0.05 0.05 0.05 0.05 0.05 0.06 0.09 0.10 0.10 0.08 0.08 0.07 0.07 0.09 0.12 0.11 0.10 0.11 0.11 0.10 0.11 0.12 0.12 0.10 0.06 0.04 0.03 0.03 0.03 0.04 0.04 0.05 0.05 0.06 0.06 0.06 0.07 0.08 0.09 0.10 0.11 0.11 0.10
0.05 0.06 0.07 0.06 0.05 0.05 0.08 0.10 0.11 0.09 0.08 0.07 0.06 0.08 0.10 0.10 0.10 0.10 0.11 0.11 0.10 0.10 0.10 0.09 0.07 0.05 0.04 0.03 0.03 0.04 0.04 0.04 0.04 0.05 0.06 0.06 0.06 0.07 0.08 0.08 0.09 0.09 0.08
0.05 0.06 0.09 0.07 0.05 0.05 0.06 0.06 0.09 0.10 0.09 0.07 0.06 0.07 0.08 0.08 0.09 0.10 0.11 0.10 0.08 0.08 0.09 0.08 0.07 0.06 0.05 0.04 0.04 0.04 0.04 0.04 0.04 0.04 0.05 0.05 0.06 0.06 0.07 0.07 0.07 0.07 0.08
0.04 0.07 0.08 0.08 0.07 0.07 0.08 0.06 0.06 0.09 0.09 0.08 0.07 0.07 0.07 0.06 0.08 0.09 0.09 0.09 0.08 0.07 0.07 0.07 0.07 0.06 0.06 0.06 0.05 0.05 0.04 0.05 0.05 0.05 0.05 0.05 0.06 0.06 0.07 0.07 0.07 0.07 0.07
0.03 0.05 0.07 0.08 0.08 0.10 0.10 0.08 0.07 0.08 0.09 0.08 0.07 0.07 0.07 0.07 0.06 0.07 0.08 0.08 0.08 0.07 0.07 0.07 0.06 0.06 0.06 0.07 0.07 0.06 0.05 0.06 0.06 0.06 0.05 0.05 0.05 0.05 0.06 0.07 0.07 0.07 0.07
0.03 0.04 0.06 0.07 0.07 0.08 0.09 0.08 0.06 0.06 0.06 0.06 0.06 0.07 0.07 0.08 0.07 0.05 0.05 0.06 0.06 0.06 0.06 0.06 0.05 0.06 0.06 0.06 0.06 0.07 0.07 0.07 0.06 0.06 0.06 0.06 0.06 0.06 0.05 0.05 0.05 0.05 0.06
0.03 0.04 0.05 0.07 0.06 0.05 0.05 0.05 0.05 0.04 0.04 0.04 0.05 0.06 0.06 0.06 0.06 0.05 0.04 0.04 0.04 0.05 0.05 0.05 0.04 0.05 0.05 0.06 0.07 0.06 0.06 0.06 0.07 0.07 0.07 0.06 0.06 0.06 0.06 0.06 0.05 0.04 0.05
0.03 0.05 0.06 0.07 0.06 0.04 0.04 0.04 0.04 0.04 0.03 0.03 0.04 0.06 0.05 0.05 0.04 0.04 0.03 0.03 0.03 0.03 0.04 0.04 0.04 0.05 0.05 0.05 0.06 0.06 0.05 0.06 0.06 0.07 0.07 0.06 0.05 0.05 0.05 0.04 0.04 0.03 0.04
0.04 0.06 0.06 0.07 0.06 0.04 0.03 0.03 0.04 0.04 0.04 0.04 0.05 0.05 0.04 0.04 0.03 0.02 0.02 0.02 0.03 0.04 0.04 0.04 0.04 0.05 0.05 0.05 0.05 0.06 0.05 0.05 0.06 0.06 0.06 0.06 0.05 0.05 0.04 0.04 0.03 0.03 0.04
0.04 0.05 0.05 0.06 0.05 0.04 0.03 0.03 0.04 0.05 0.05 0.05 0.05 0.05 0.04 0.03 0.03 0.02 0.02 0.02 0.02 0.03 0.04 0.04 0.04 0.04 0.04 0.04 0.05 0.05 0.05 0.05 0.05 0.05 0.05 0.05 0.05 0.05 0.04 0.04 0.04 0.04 0.03
0.04 0.04 0.05 0.05 0.05 0.04 0.03 0.03 0.03 0.04 0.05 0.05 0.05 0.05 0.04 0.04 0.04 0.03 0.02 0.02 0.02 0.02 0.03 0.04 0.04 0.04 0.03 0.03 0.04 0.04 0.05 0.05 0.05 0.05 0.05 0.05 0.05 0.05 0.04 0.04 0.05 0.05 0.04
0.03 0.03 0.04 0.04 0.04 0.04 0.03 0.03 0.03 0.04 0.04 0.05 0.05 0.05 0.05 0.05 0.04 0.04 0.03 0.02 0.02 0.02 0.03 0.03 0.03 0.03 0.03 0.04 0.04 0.04 0.04 0.04 0.04 0.04 0.05 0.05 0.05 0.04 0.04 0.04 0.05 0.06 0.05
0.02 0.03 0.03 0.03 0.03 0.04 0.03 0.03 0.03 0.03 0.04 0.04 0.04 0.04 0.04 0.04 0.05 0.05 0.04 0.03 0.03 0.03 0.03 0.03 0.03 0.03 0.03 0.04 0.05 0.04 0.03 0.03 0.03 0.04 0.04 0.05 0.05 0.05 0.06 0.05 0.05 0.06 0.07
0.02 0.02 0.03 0.03 0.03 0.03 0.03 0.03 0.03 0.03 0.03 0.04 0.04 0.04 0.04 0.03 0.03 0.04 0.04 0.03 0.03 0.04 0.04 0.04 0.03 0.04 0.05 0.05 0.07 0.06 0.04 0.04 0.04 0.04 0.04 0.04 0.05 0.06 0.06 0.05 0.05 0.06 0.07
0.02 0.02 0.03 0.03 0.03 0.03 0.03 0.03 0.03 0.03 0.03 0.05 0.05 0.04 0.03 0.03 0.03 0.03 0.03 0.03 0.04 0.04 0.04 0.04 0.04 0.04 0.05 0.06 0.06 0.05 0.05 0.04 0.04 0.04 0.04 0.04 0.04 0.05 0.05 0.05 0.06 0.06 0.07
MSLP
1007.21 1007.62 1008.11 1008.68 1009.27 1009.87 1010.45 1011.01 1011.53 1012.01 1012.44 1012.81 1013.12 1013.37 1013.55 1013.66 1013.70 1013.71 1013.69 1013.67 1013.67 1013.71 1013.80 1013.94 1014.10 1014.25 1014.38 1014.43 1014.39 1014.25 1014.00 1013.66 1013.26 1012.84 1012.41 1012.02 1011.67 1011.39 1011.17 1011.00 1010.87 1010.78 1010.71
1006.38 1006.88 1007.47 1008.10 1008.74 1009.37 1009.98 1010.56 1011.12 1011.66 1012.16 1012.62 1013.02 1013.33 1013.55 1013.67 1013.70 1013.67 1013.60 1013.53 1013.49 1013.52 1013.61 1013.77 1013.97 1014.17 1014.33 1014.42 1014.40 1014.27 1014.01 1013.66 1013.24 1012.78 1012.32 1011.88 1011.47 1011.11 1010.80 1010.54 1010.33 1010.16 1010.03
1005.62 1006.21 1006.88 1007.58 1008.26 1008.91 1009.52 1010.12 1010.70 1011.27 1011.83 1012.35 1012.82 1013.19 1013.45 1013.59 1013.61 1013.54 1013.43 1013.31 1013.24 1013.25 1013.35 1013.52 1013.76 1014.00 1014.20 1014.33 1014.35 1014.25 1014.02 1013.69 1013.29 1012.84 1012.38 1011.91 1011.46 1011.04 1010.64 1010.27 1009.94 1009.67 1009.46
1004.96 1005.62 1006.36 1007.10 1007.81 1008.46 1009.07 1009.66 1010.24 1010.82 1011.41 1011.98 1012.50 1012.92 1013.21 1013.37 1013.39 1013.31 1013.17 1013.03 1012.94 1012.94 1013.03 1013.23 1013.49 1013.77 1014.02 1014.19 1014.26 1014.21 1014.04 1013.76 1013.41 1013.01 1012.57 1012.11 1011.64 1011.16 1010.67 1010.19 1009.74 1009.33 1008.99
1004.39 1005.11 1005.90 1006.67 1007.38 1008.03 1008.62 1009.17 1009.73 1010.31 1010.91 1011.50 1012.04 1012.50 1012.83 1013.01 1013.05 1012.97 1012.83 1012.69 1012.60 1012.60 1012.71 1012.93 1013.22 1013.54 1013.82 1014.05 1014.17 1014.17 1014.07 1013.86 1013.59 1013.25 1012.86 1012.43 1011.95 1011.42 1010.86 1010.26 1009.67 1009.11 1008.63
1003.94 1004.69 1005.49 1006.28 1006.98 1007.60 1008.15 1008.67 1009.19 1009.74 1010.32 1010.91 1011.47 1011.95 1012.32 1012.53 1012.60 1012.55 1012.44 1012.32 1012.26 1012.28 1012.42 1012.66 1012.98 1013.32 1013.64 1013.90 1014.07 1014.13 1014.09 1013.96 1013.76 1013.49 1013.15 1012.76 1012.29 1011.73 1011.10 1010.40 1009.68 1008.97 1008.32
1003.60 1004.35 1005.16 1005.93 1006.61 1007.19 1007.69 1008.14 1008.61 1009.11 1009.66 1010.24 1010.80 1011.30 1011.69 1011.95 1012.06 1012.06 1012.00 1011.94 1011.92 1011.98 1012.16 1012.43 1012.77 1013.14 1013.48 1013.77 1013.96 1014.06 1014.07 1014.00 1013.85 1013.64 1013.37 1013.01 1012.55 1011.98 1011.30 1010.52 1009.68 1008.83 1008.03
1003.37 1004.11 1004.91 1005.65 1006.28 1006.80 1007.24 1007.62 1008.02 1008.47 1008.97 1009.52 1010.07 1010.57 1010.99 1011.29 1011.46 1011.52 1011.53 1011.53 1011.58 1011.70 1011.92 1012.23 1012.59 1012.97 1013.33 1013.61 1013.82 1013.93 1013.96 1013.91 1013.81 1013.64 1013.41 1013.08 1012.65 1012.08 1011.37 1010.54 1009.62 1008.66 1007.74
1003.25 1003.98 1004.74 1005.43 1006.01 1006.46 1006.81 1007.12 1007.45 1007.82 1008.27 1008.78 1009.30 1009.81 1010.24 1010.58 1010.80 1010.94 1011.02 1011.10 1011.22 1011.41 1011.68 1012.02 1012.41 1012.79 1013.13 1013.40 1013.58 1013.68 1013.70 1013.66 1013.56 1013.42 1013.21 1012.92 1012.52 1011.97 1011.26 1010.41 1009.45 1008.43 1007.42
1003.26 1003.96 1004.66 1005.29 1005.78 1006.15 1006.42 1006.65 1006.90 1007.20 1007.59 1008.05 1008.54 1009.03 1009.47 1009.84 1010.11 1010.32 1010.48 1010.64 1010.83 1011.08 1011.40 1011.77 1012.16 1012.54 1012.85 1013.09 1013.24 1013.30 1013.28 1013.21 1013.11 1012.97 1012.78 1012.52 1012.15 1011.64 1010.96 1010.14 1009.18 1008.13 1007.07
1003.38 1004.03 1004.66 1005.20 1005.61 1005.88 1006.06 1006.20 1006.37 1006.61 1006.94 1007.34 1007.80 1008.27 1008.72 1009.10 1009.41 1009.67 1009.89 1010.12 1010.38 1010.68 1011.04 1011.43 1011.82 1012.18 1012.46 1012.65 1012.75 1012.75 1012.69 1012.58 1012.46 1012.31 1012.13 1011.89 1011.57 1011.11 1010.50 1009.72 1008.80 1007.78 1006.71
1003.58 1004.17 1004.71 1005.15 1005.44 1005.61 1005.70 1005.76 1005.86 1006.04 1006.31 1006.68 1007.10 1007.54 1007.98 1008.37 1008.71 1009.01 1009.28 1009.56 1009.87 1010.21 1010.60 1011.00 1011.38 1011.71 1011.95 1012.09 1012.13 1012.08 1011.97 1011.82 1011.66 1011.50 1011.34 1011.13 1010.85 1010.46 1009.92 1009.22 1008.37 1007.39 1006.35
1003.81 1004.32 1004.75 1005.07 1005.25 1005.31 1005.31 1005.31 1005.35 1005.48 1005.71 1006.04 1006.43 1006.86 1007.28 1007.67 1008.03 1008.35 1008.66 1008.97 1009.31 1009.69 1010.08 1010.48 1010.84 1011.14 1011.34 1011.43 1011.42 1011.32 1011.16 1010.98 1010.80 1010.64 1010.48 1010.31 1010.08 1009.75 1009.29 1008.66 1007.88 1006.96 1005.96
1004.03 1004.43 1004.73 1004.91 1004.97 1004.94 1004.86 1004.80 1004.80 1004.91 1005.12 1005.42 1005.80 1006.22 1006.63 1007.03 1007.39 1007.73 1008.06 1008.40 1008.75 1009.13 1009.52 1009.90 1010.24 1010.50 1010.66 1010.70 1010.65 1010.51 1010.33 1010.13 1009.94 1009.77 1009.63 1009.49 1009.30 1009.03 1008.63 1008.07 1007.35 1006.49 1005.52
1004.16 1004.43 1004.59 1004.64 1004.58 1004.46 1004.33 1004.23 1004.22 1004.32 1004.53 1004.84 1005.22 1005.63 1006.05 1006.45 1006.82 1007.17 1007.52 1007.86 1008.22 1008.59 1008.96 1009.31 1009.61 1009.83 1009.94 1009.95 1009.87 1009.71 1009.50 1009.30 1009.11 1008.95 1008.83 1008.71 1008.56 1008.33 1007.97 1007.46 1006.78 1005.95 1005.01
1004.17 1004.29 1004.31 1004.23 1004.07 1003.89 1003.72 1003.61 1003.61 1003.72 1003.95 1004.28 1004.67 1005.10 1005.53 1005.94 1006.33 1006.69 1007.04 1007.38 1007.73 1008.09 1008.43 1008.74 1008.99 1009.16 1009.23 1009.21 1009.10 1008.92 1008.71 1008.51 1008.34 1008.20 1008.09 1007.99 1007.86 1007.64 1007.30 1006.81 1006.15 1005.33 1004.39
1004.04 1004.01 1003.90 1003.71 1003.48 1003.26 1003.08 1002.99 1003.01 1003.16 1003.42 1003.78 1004.19 1004.64 1005.08 1005.51 1005.90 1006.28 1006.63 1006.97 1007.31 1007.63 1007.94 1008.20 1008.40 1008.51 1008.54 1008.48 1008.35 1008.17 1007.96 1007.78 1007.62 1007.50 1007.41 1007.32 1007.19 1006.98 1006.63 1006.13 1005.46 1004.64 1003.70
1003.80 1003.64 1003.42 1003.16 1002.89 1002.65 1002.49 1002.43 1002.50 1002.68 1002.98 1003.36 1003.80 1004.26 1004.71 1005.15 1005.55 1005.93 1006.29 1006.62 1006.93 1007.22 1007.48 1007.69 1007.83 1007.89 1007.87 1007.78 1007.62 1007.44 1007.25 1007.07 1006.94 1006.84 1006.76 1006.68 1006.55 1006.32 1005.96 1005.44 1004.75 1003.90 1002.94
1003.53 1003.28 1002.99 1002.68 1002.40 1002.18 1002.06 1002.04 1002.14 1002.37 1002.69 1003.08 1003.52 1003.98 1004.43 1004.86 1005.26 1005.64 1005.98 1006.30 1006.59 1006.84 1007.05 1007.20 1007.28 1007.29 1007.22 1007.09 1006.92 1006.73 1006.55 1006.40 1006.29 1006.21 1006.15 1006.07 1005.93 1005.69 1005.30 1004.76 1004.04 1003.18 1002.20
1003.34 1003.03 1002.70 1002.40 1002.14 1001.96 1001.88 1001.90 1002.04 1002.27 1002.59 1002.97 1003.39 1003.81 1004.24 1004.64 1005.02 1005.38 1005.71 1006.00 1006.26 1006.47 1006.63 1006.73 1006.75 1006.70 1006.59 1006.43 1006.24 1006.05 1005.88 1005.75 1005.66 1005.61 1005.56 1005.49 1005.34 1005.09 1004.69 1004.13 1003.40 1002.53 1001.56
1003.32 1003.00 1002.69 1002.42 1002.21 1002.07 1002.03 1002.09 1002.23 1002.46 1002.74 1003.07 1003.43 1003.79 1004.16 1004.51 1004.85 1005.17 1005.46 1005.72 1005.94 1006.11 1006.23 1006.27 1006.23 1006.14 1005.98 1005.79 1005.59 1005.40 1005.25 1005.14 1005.08 1005.04 1005.01 1004.95 1004.81 1004.56 1004.16 1003.59 1002.87 1002.02 1001.08
1003.55 1003.26 1003.00 1002.79 1002.64 1002.56 1002.56 1002.62 1002.75 1002.93 1003.15 1003.39 1003.66 1003.93 1004.20 1004.48 1004.75 1005.01 1005.26 1005.47 1005.65 1005.78 1005.84 1005.83 1005.75 1005.62 1005.43 1005.22 1005.01 1004.82 1004.68 1004.59 1004.55 1004.54 1004.53 1004.48 1004.35 1004.11 1003.72 1003.18 1002.49 1001.68 1000.80
1004.06 1003.84 1003.65 1003.51 1003.43 1003.40 1003.42 1003.47 1003.56 1003.66 1003.79 1003.92 1004.06 1004.22 1004.38 1004.56 1004.74 1004.93 1005.12 1005.28 1005.41 1005.49 1005.50 1005.45 1005.33 1005.16 1004.95 1004.73 1004.51 1004.33 1004.20 1004.13 1004.11 1004.12 1004.12 1004.09 1003.98 1003.76 1003.40 1002.89 1002.26 1001.52 1000.71
1004.83 1004.68 1004.58 1004.52 1004.50 1004.50 1004.52 1004.55 1004.57 1004.59 1004.60 1004.61 1004.62 1004.64 1004.69 1004.76 1004.85 1004.95 1005.07 1005.17 1005.24 1005.27 1005.24 1005.15 1005.00 1004.80 1004.57 1004.33 1004.12 1003.95 1003.83 1003.77 1003.76 1003.78 1003.80 1003.78 1003.68 1003.49 1003.16 1002.71 1002.15 1001.49 1000.78
1005.76 1005.71 1005.69 1005.70 1005.72 1005.73 1005.74 1005.72 1005.67 1005.59 1005.48 1005.37 1005.26 1005.16 1005.09 1005.05 1005.05 1005.07 1005.11 1005.15 1005.17 1005.14 1005.07 1004.94 1004.76 1004.53 1004.29 1004.05 1003.83 1003.66 1003.55 1003.50 1003.50 1003.52 1003.54 1003.53 1003.45 1003.28 1002.99 1002.60 1002.11 1001.55 1000.96
1006.77 1006.79 1006.83 1006.88 1006.92 1006.93 1006.90 1006.83 1006.70 1006.53 1006.33 1006.11 1005.89 1005.69 1005.52 1005.40 1005.31 1005.26 1005.24 1005.21 1005.17 1005.10 1004.98 1004.81 1004.60 1004.35 1004.10 1003.85 1003.63 1003.47 1003.36 1003.31 1003.30 1003.32 1003.34 1003.32 1003.25 1003.10 1002.86 1002.52 1002.11 1001.65 1001.16
Thickness
5563 5563 5563 5562 5562 5561 5562 5563 5563 5563 5563 5564 5565 5566 5568 5570 5571 5572 5573 5574 5574 5575 5576 5576 5577 5578 5579 5581 5583 5584 5585 5586 5587 5587 5590 5595 5599 5601 5604 5606 5606 5607 5607
5552 5552 5552 5551 5551 5551 5551 5553 5553 5553 5553 5554 5556 5557 5558 5559 5560 5561 5562 5563 5564 5564 5565 5565 5565 5566 5568 5570 5571 5573 5574 5575 5577 5577 5578 5582 5588 5592 5595 5596 5597 5599 5598
5542 5542 5542 5541 5540 5541 5541 5543 5543 5543 5544 5545 5546 5547 5548 5548 5548 5550 5551 5553 5553 5553 5554 5554 5555 5556 5558 5560 5562 5563 5564 5565 5566 5567 5568 5570 5577 5581 5586 5587 5589 5590 5589
5531 5531 5531 5530 5530 5531 5532 5532 5532 5533 5534 5535 5535 5537 5537 5538 5539 5540 5541 5542 5542 5543 5544 5544 5545 5546 5548 5550 5552 5553 5555 5556 5556 5557 5558 5560 5564 5566 5572 5577 5579 5580 5581
5521 5521 5520 5520 5520 5521 5521 5523 5523 5523 5524 5524 5525 5526 5526 5527 5528 5529 5529 5531 5532 5533 5534 5535 5535 5537 5538 5540 5541 5543 5544 5546 5547 5548 5549 5550 5551 5554 5557 5563 5567 5569 5571
5512 5511 5510 5509 5510 5510 5511 5513 5513 5513 5513 5514 5515 5515 5516 5516 5517 5517 5518 5520 5522 5523 5524 5526 5527 5528 5529 5530 5532 5533 5535 5536 5537 5539 5540 5541 5544 5546 5547 5550 5554 5557 5561
5501 5500 5499 5499 5500 5501 5502 5503 5503 5504 5505 5505 5505 5505 5506 5507 5508 5508 5508 5510 5512 5514 5516 5517 5517 5519 5520 5521 5523 5524 5525 5526 5528 5530 5531 5533 5536 5538 5539 5540 5541 5544 5549
5491 5491 5491 5490 5491 5492 5493 5493 5493 5495 5496 5496 5496 5496 5497 5497 5497 5498 5499 5500 5503 5505 5506 5507 5508 5510 5511 5513 5515 5515 5516 5517 5520 5521 5522 5525 5527 5529 5530 5531 5531 5533 5537
5483 5483 5482 5482 5482 5483 5484 5485 5485 5486 5487 5487 5487 5488 5487 5487 5488 5489 5490 5491 5493 5495 5497 5498 5500 5502 5502 5503 5505 5506 5507 5508 5510 5512 5514 5515 5518 5519 5520 5522 5523 5523 5526
5474 5475 5474 5475 5476 5476 5476 5477 5476 5477 5478 5479 5480 5481 5479 5479 5479 5481 5481 5482 5484 5486 5488 5489 5491 5493 5494 5495 5496 5496 5497 5498 5500 5502 5505 5507 5508 5509 5511 5512 5513 5515 5516
5464 5464 5465 5466 5468 5468 5469 5468 5468 5468 5469 5471 5471 5471 5471 5470 5471 5472 5473 5474 5475 5477 5479 5481 5482 5483 5484 5485 5486 5487 5488 5489 5490 5492 5495 5497 5498 5500 5501 5502 5503 5505 5506
5455 5455 5455 5457 5458 5459 5460 5460 5459 5460 5461 5462 5463 5463 5462 5462 5463 5464 5465 5466 5466 5467 5470 5471 5472 5473 5474 5475 5475 5477 5478 5479 5480 5481 5483 5486 5488 5489 5490 5492 5494 5496 5497
5447 5446 5447 5448 5448 5449 5451 5452 5451 5451 5452 5453 5454 5454 5454 5455 5456 5457 5458 5457 5457 5459 5460 5461 5462 5463 5464 5464 5465 5466 5467 5468 5470 5471 5473 5476 5477 5479 5480 5482 5484 5486 5488
5439 5439 5438 5439 5440 5441 5442 5443 5443 5443 5444 5445 5446 5447 5447 5448 5449 5450 5450 5450 5449 5451 5452 5452 5453 5454 5455 5456 5456 5456 5457 5458 5460 5461 5463 5466 5468 5470 5471 5473 5475 5476 5477
5433 5432 5431 5431 5431 5432 5433 5433 5434 5434 5435 5436 5437 5438 5439 5440 5441 5442 5443 5442 5442 5443 5444 5444 5445 5445 5446 5447 5447 5447 5448 5450 5451 5452 5454 5457 5459 5460 5463 5465 5466 5467 5468
5427 5425 5424 5424 5424 5424 5424 5425 5425 5425 5426 5426 5428 5429 5431 5432 5433 5434 5435 5435 5435 5435 5436 5436 5437 5437 5438 5439 5440 5440 5441 5443 5444 5445 5447 5449 5450 5451 5454 5457 5459 5460 5460
5418 5417 5416 5415 5416 5416 5415 5415 5416 5417 5418 5419 5420 5421 5423 5424 5425 5425 5427 5427 5426 5427 5428 5428 5428 5429 5430 5432 5433 5434 5435 5436 5437 5438 5440 5441 5443 5443 5445 5447 5450 5451 5452
5410 5409 5407 5408 5408 5409 5408 5408 5409 5409 5410 5411 5412 5413 5415 5416 5416 5416 5418 5418 5418 5419 5420 5420 5421 5422 5423 5425 5426 5428 5428 5429 5429 5431 5432 5433 5434 5436 5437 5439 5441 5441 5442
5403 5401 5400 5400 5401 5401 5401 5401 5401 5401 5401 5403 5405 5406 5407 5408 5408 5409 5409 5409 5410 5411 5412 5413 5414 5414 5415 5417 5419 5420 5420 5421 5422 5423 5424 5425 5426 5428 5429 5430 5432 5433 5434
5396 5395 5393 5393 5394 5394 5395 5394 5394 5394 5394 5395 5397 5398 5399 5399 5400 5401 5400 5401 5402 5402 5404 5405 5406 5406 5407 5409 5411 5412 5413 5413 5414 5415 5415 5417 5418 5419 5419 5420 5421 5422 5424
5389 5388 5386 5386 5387 5388 5387 5387 5388 5387 5388 5388 5389 5390 5391 5391 5392 5392 5392 5393 5393 5394 5395 5397 5398 5398 5399 5401 5403 5404 5405 5405 5405 5406 5407 5408 5409 5410 5411 5412 5413 5415 5416
5381 5380 5379 5379 5379 5380 5380 5380 5380 5380 5381 5381 5382 5382 5383 5383 5384 5384 5384 5385 5385 5386 5387 5388 5389 5390 5391 5392 5394 5396 5398 5398 5398 5398 5399 5399 5401 5403 5404 5405 5407 5408 5409
5374 5373 5371 5372 5372 5372 5372 5372 5372 5373 5373 5374 5374 5375 5375 5375 5376 5376 5377 5377 5378 5379 5380 5381 5381 5382 5383 5384 5386 5388 5390 5390 5390 5391 5392 5393 5394 5396 5397 5398 5399 5400 5401
5367 5366 5365 5364 5364 5364 5365 5364 5365 5365 5366 5366 5367 5368 5368 5369 5369 5369 5370 5370 5370 5372 5373 5373 5373 5374 5375 5376 5378 5380 5381 5382 5383 5383 5384 5386 5388 5389 5390 5391 5391 5392 5395
5360 5358 5358 5357 5357 5358 5358 5358 5358 5359 5359 5359 5360 5361 5361 5362 5362 5363 5362 5363 5364 5365 5366 5366 5366 5367 5369 5370 5372 5373 5374 5376 5376 5377 5378 5379 5379 5380 5382 5382 5383 5385 5387
5353 5352 5351 5351 5351 5351 5351 5351 5351 5352 5353 5353 5354 5354 5355 5356 5356 5357 5357 5356 5357 5358 5359 5359 5360 5361 5362 5364 5365 5367 5368 5369 5371 5371 5371 5371 5371 5372 5373 5375 5376 5378 5380